TELSTAR 19V (43562 NORAD) Tracking and Keplerian Element Data

This shows tracking and keplerian element data for the satellite.

Feedback or suggestion? Click here.




ElementValue
Catalog43562
NameTELSTAR 19V
Epoch Orbit300
Epoch Day115.74614881
Epoch Year2019
RAAN193.2438
Inclination0.0089
Eccentricity0.0001154
Argument of Perigee271.766
Mean Anonmoly314.0728
Mean Motion1.00271662
Decay Rate-2.93E-06
L11 43562U 18059A 19115.74614881 -.00000293 00000-0 00000+0 0 9993
L22 43562 0.0089 193.2438 0001154 271.7660 314.0728 1.00271662 3002

Live tracking and technical data element details for TELSTAR 19V (NORAD 43562). TELSTAR 19V can be tracked NOW for your location showing map with azimuth and elevation plus other details from your city location.

Track the satellite on the map from your city or location and see movement details for azimuth, elevation, latitude, longitude, range, height, and movement on the map or in text.







IsCatalogInMostPopularTable: catalog: 43562, numindb: 349
Update: records affected: 1



GetName: 43562 TELSTAR 19V

Hit Count: updated at: Fri, 26 Apr 2019 16:10:38 GMT